[[{"header":{"parameterUnit":"m.s-1","parameterCategory":1,"la1":30.2991,"la2":30.254,"lo1":-89.0895,"lo2":-89.0444,"dy":0.0017,"dx":0.0017,"nx":28,"ny":28,"refTime":"2025-04-03T03:00:00:Z","depth":0,"parameterNumber":2,"parameterNumberName":"U-component_of_WINDS"},"data":[0,0,0,0,0,0,0,0,0,0,0,0,0,0,0,0,0,0,0,0,0,0,0,0,0,0,0,0,0,0,0,0,0,0,0,0,0,0,0,0,0,0,0,0,0,0,0,0,0,0,0,0,0,0,0,0,0,0,-6.0433,-6.0433,0,-6.0509,-6.0509,-6.051,-6.0478,-6.0476,-6.0474,-6.0472,-6.0546,-6.055,-6.0553,0,0,0,0,0,0,0,0,0,0,0,0,0,-6.0256,-6.0259,-6.0432,-6.0433,-6.0434,-6.0509,-6.051,-6.0511,-6.0478,-6.0476,-6.0474,-6.0472,-6.0545,-6.0549,-6.0554,0,0,0,0,0,0,0,0,0,0,0,0,0,-6.0332,-6.026,-6.0432,-6.0427,-6.0428,-6.0508,-6.051,-6.0511,-6.0479,-6.0476,-6.0473,-6.0471,-6.0543,-6.0549,-6.0554,-6.0643,0,0,-6.0571,-6.0573,0,0,0,0,0,0,0,0,-6.0328,-6.0339,-6.0427,-6.0428,-6.0428,-6.0481,-6.0474,-6.0555,-6.0479,-6.0459,-6.0472,-6.0469,-6.0526,-6.0533,-6.0553,-6.0646,-6.065,-6.0572,-6.0575,-6.0577,-6.0579,0,0,0,0,0,0,0,-6.0323,-6.0335,-6.0462,-6.0428,-6.0429,-6.042,-6.0428,-6.0489,-6.0507,-6.0461,-6.0459,-6.0468,-6.0526,-6.0548,-6.0555,-6.0651,-6.0571,-6.0576,-6.058,-6.0582,-6.082,-6.0823,0,0,0,0,0,0,-6.0318,-6.0331,-6.046,-6.0465,-6.037,-6.0426,-6.0434,-6.0467,-6.0506,-6.051,-6.047,-6.0466,-6.054,-6.0548,-6.0557,-6.0662,-6.0577,-6.0582,-6.0586,-6.0817,-6.082,-6.0824,0,0,0,0,0,0,-6.0314,-6.033,-6.0457,-6.0397,-6.0413,-6.0432,-6.0468,-6.047,-6.0492,-6.0514,-6.0516,-6.049,-6.0538,-6.0549,-6.0622,-6.0664,-6.0585,-6.059,-6.0813,-6.0818,-6.0822,-6.0874,0,0,0,0,0,0,-6.0309,-6.0328,-6.0363,-6.0398,-6.0416,-6.0521,-6.0471,-6.0473,-6.0502,-6.0497,-6.0533,-6.0536,-6.0537,-6.0614,-6.0628,-6.067,-6.0594,-6.0809,-6.0815,-6.0821,-6.0868,-6.088,-6.0889,0,0,0,0,0,-6.0303,-6.0374,-6.0365,-6.0381,-6.046,-6.0524,-6.0534,-6.0535,-6.0505,-6.0539,-6.0554,-6.0535,-6.0659,-6.0622,-6.0637,-6.0682,-6.0807,-6.0814,-6.082,-6.0864,-6.0878,-6.0889,0,0,0,0,0,0,-6.0341,-6.0378,-6.0369,-6.0454,-6.0486,-6.0518,-6.0561,-6.055,-6.059,-6.0584,-6.0583,-6.0591,-6.0666,-6.0682,-6.064,-6.077,-6.0728,-6.0738,-6.0756,-6.0769,-6.0779,-6.0772,-6.0599,0,0,0,0,0,-6.036,-6.041,-6.0439,-6.0511,-6.0528,-6.0543,-6.057,-6.0569,-6.0602,-6.0615,-6.0634,-6.0666,-6.0712,-6.0742,-6.0786,-6.0872,-6.0878,-6.0911,-6.0921,-6.093,-6.0937,-6.0983,-6.0997,-6.0846,-6.0846,-6.0846,0,0,-6.0397,-6.0424,-6.0456,-6.052,-6.0544,-6.0595,-6.0554,-6.0609,-6.0646,-6.0623,-6.0692,-6.0708,-6.0743,-6.0823,-6.0859,-6.0838,-6.0981,-6.0938,-6.0945,-6.0948,-6.0991,-6.1005,-6.1018,-6.0851,-6.085,-6.0849,0,0,-6.0492,-6.0519,-6.0581,-6.0607,-6.0646,-6.0656,-6.0671,-6.0706,-6.0716,-6.0786,-6.0769,-6.0813,-6.0893,-6.0918,-6.0942,-6.1048,-6.1031,-6.1063,-6.1116,-6.116,-6.1172,-6.1182,-6.1218,-6.1231,-6.1071,-6.1071,-6.1071,0,-6.0533,-6.061,-6.0614,-6.067,-6.0698,-6.0682,-6.0744,-6.0769,-6.082,-6.0839,-6.0817,-6.0916,-6.0939,-6.1023,-6.105,-6.107,-6.1086,-6.1057,-6.117,-6.1181,-6.1191,-6.1224,-6.1238,-6.1075,-6.1074,-6.1074,-6.1074,0,-6.0658,-6.0712,-6.0757,-6.0808,-6.0842,-6.0901,-6.0912,-6.0946,-6.0942,-6.0954,-6.1025,-6.1053,-6.1101,-6.1122,-6.1118,-6.1206,-6.1192,-6.117,-6.1127,-6.1208,-6.124,-6.1253,-6.1079,-6.1078,-6.1077,-6.1076,0,0,-6.0775,-6.0829,-6.0845,-6.0868,-6.0911,-6.0952,-6.1011,-6.106,-6.1087,-6.1124,-6.1171,-6.1241,-6.1221,-6.1248,-6.1247,-6.1287,-6.1367,-6.126,-6.1261,-6.1276,-6.1463,-6.1476,-6.1492,-6.1358,-6.136,-6.1362,-6.1459,0,-6.0871,-6.0974,-6.098,-6.1073,-6.1121,-6.1108,-6.1159,-6.119,-6.1203,-6.1245,-6.1259,-6.1307,-6.1279,-6.1295,-6.1334,-6.1349,-6.1404,-6.1343,-6.1399,-6.1401,-6.1387,-6.1509,-6.1523,-6.1613,-6.1472,-6.1474,-6.1475,0,-6.0995,-6.1037,-6.1135,-6.1171,-6.1192,-6.1238,-6.1283,-6.1324,-6.136,-6.1366,-6.1397,-6.1392,-6.145,-6.1409,-6.1489,-6.1447,-6.1471,-6.1483,-6.1486,-6.1488,-6.144,-6.1511,-6.1642,-6.1654,-6.1496,-6.1494,-6.1492,0,-6.1067,-6.1148,-6.1217,-6.1237,-6.1282,-6.1314,-6.1334,-6.1367,-6.1396,-6.1436,-6.1455,-6.1501,-6.1525,-6.156,-6.1567,-6.1536,-6.1646,-6.1606,-6.1651,-6.1651,-6.1671,-6.1669,-6.1804,-6.1693,-6.1693,-6.1693,-6.1692,0,-6.1171,-6.1231,-6.125,-6.1292,-6.1358,-6.1365,-6.143,-6.1448,-6.1478,-6.1522,-6.1514,-6.1556,-6.1564,-6.1607,-6.1613,-6.1676,-6.1688,-6.1694,-6.1694,-6.1693,-6.1691,-6.1705,-6.1698,-6.1696,-6.1696,-6.1695,-6.1694,0,-6.126,-6.1276,-6.135,-6.1388,-6.1398,-6.1446,-6.1477,-6.1516,-6.153,-6.1586,-6.16,-6.162,-6.167,-6.1682,-6.1741,-6.1745,-6.182,-6.1816,-6.1808,-6.1807,-6.1851,-6.1845,-6.1996,-6.2015,-6.1895,-6.1896,-6.1897,0,-6.1324,-6.137,-6.1413,-6.1443,-6.1465,-6.1513,-6.1543,-6.1552,-6.1583,-6.1628,-6.1662,-6.1712,-6.1752,-6.1833,-6.1852,-6.1897,-6.1892,-6.1942,-6.1898,-6.1895,-6.1889,-6.1885,-6.1888,-6.1949,-6.195,-6.1951,-6.1952,0,-6.1434,-6.144,-6.1484,-6.1532,-6.1569,-6.1606,-6.1642,-6.1667,-6.168,-6.1716,-6.1768,-6.18,-6.1862,-6.191,-6.1956,-6.1976,-6.1965,-6.1967,-6.1979,-6.1976,-6.1968,-6.197,-6.1827,-6.1962,-6.1961,-6.196,-6.196,-6.1959,-6.1511,-6.155,-6.1587,-6.1637,-6.1665,-6.1699,-6.1738,-6.1757,-6.1801,-6.1853,-6.1856,-6.1912,-6.1946,-6.2007,-6.203,-6.2073,-6.2057,-6.2076,-6.208,-6.2084,-6.2086,-6.1965,-6.2082,-6.2082,-6.2082,-6.2081,-6.2081,0,-6.1618,-6.1641,-6.1687,-6.1738,-6.1777,-6.1768,-6.1807,-6.184,-6.189,-6.1924,-6.1964,-6.2024,-6.2071,-6.2096,-6.2143,-6.2173,-6.2169,-6.2184,-6.218,-6.2185,-6.2099,-6.2082,-6.2186,-6.2186,-6.2186,-6.2186,-6.2186,-6.2186,-6.1678,-6.1744,-6.1755,-6.1835,-6.1858,-6.1914,-6.1937,-6.1968,-6.1995,-6.2062,-6.2102,-6.2119,-6.2148,-6.2198,-6.2241,-6.2247,-6.2263,-6.228,-6.2283,-6.2202,-6.2191,-6.218,-6.2164,-6.2284,-6.2284,-6.2365,-6.2365,-6.2366]},{"header":{"parameterUnit":"m.s-1","parameterCategory":1,"la1":30.2991,"la2":30.254,"lo1":-89.0895,"lo2":-89.0444,"dy":0.0017,"dx":0.0017,"nx":28,"ny":28,"refTime":"2025-04-03T03:00:00:Z","depth":0,"parameterNumber":3,"parameterNumberName":"V-component_of_WINDS"},"data":[0,0,0,0,0,0,0,0,0,0,0,0,0,0,0,0,0,0,0,0,0,0,0,0,0,0,0,0,0,0,0,0,0,0,0,0,0,0,0,0,0,0,0,0,0,0,0,0,0,0,0,0,0,0,0,0,0,0,4.5082,4.5083,0,4.5118,4.5119,4.5119,4.5096,4.5095,4.5094,4.5093,4.5125,4.5127,4.5129,0,0,0,0,0,0,0,0,0,0,0,0,0,4.499,4.4992,4.5082,4.5083,4.5083,4.5118,4.5119,4.5119,4.5096,4.5095,4.5094,4.5092,4.5125,4.5127,4.5129,0,0,0,0,0,0,0,0,0,0,0,0,0,4.5028,4.4992,4.5082,4.5076,4.5076,4.5118,4.5119,4.5119,4.5096,4.5095,4.5093,4.5092,4.5124,4.5127,4.513,4.5179,0,0,4.5138,4.5139,0,0,0,0,0,0,0,0,4.5026,4.5032,4.5076,4.5076,4.5076,4.5101,4.5098,4.5139,4.5097,4.5088,4.5093,4.5091,4.5118,4.5122,4.5132,4.518,4.5182,4.5138,4.514,4.5141,4.5142,0,0,0,0,0,0,0,4.5023,4.503,4.5096,4.5077,4.5077,4.507,4.5074,4.5106,4.5112,4.5089,4.5087,4.5092,4.5118,4.5129,4.5132,4.5182,4.5138,4.5141,4.5142,4.5144,4.5275,4.5276,0,0,0,0,0,0,4.5022,4.5028,4.5095,4.5097,4.5047,4.5073,4.5077,4.5095,4.5111,4.5112,4.5094,4.5091,4.5125,4.5129,4.5133,4.5193,4.5141,4.5144,4.5145,4.5273,4.5275,4.5277,0,0,0,0,0,0,4.502,4.5028,4.5094,4.5062,4.507,4.5077,4.5096,4.5096,4.5107,4.5115,4.5115,4.5104,4.5124,4.5129,4.5168,4.5194,4.5145,4.5148,4.5271,4.5274,4.5276,4.5313,0,0,0,0,0,0,4.5017,4.5028,4.5047,4.5063,4.5072,4.5129,4.5098,4.5098,4.5113,4.511,4.5125,4.5126,4.5123,4.5164,4.5171,4.5197,4.515,4.5268,4.5272,4.5275,4.531,4.5317,4.5323,0,0,0,0,0,4.5014,4.5054,4.5048,4.5056,4.5097,4.5131,4.5136,4.5133,4.5115,4.5134,4.5139,4.5125,4.519,4.5169,4.5176,4.5203,4.5267,4.5271,4.5275,4.5307,4.5315,4.5323,0,0,0,0,0,0,4.5039,4.5056,4.5049,4.5096,4.5113,4.5127,4.5151,4.5142,4.5162,4.5159,4.5153,4.5157,4.5198,4.5204,4.518,4.5253,4.5225,4.5231,4.5247,4.5255,4.5262,4.526,4.5152,0,0,0,0,0,4.505,4.5078,4.5091,4.5131,4.514,4.5144,4.5159,4.5156,4.5172,4.5178,4.5186,4.5201,4.5224,4.524,4.5262,4.531,4.5314,4.5333,4.5339,4.5345,4.535,4.5377,4.5386,4.529,4.529,4.529,0,0,4.5073,4.5086,4.5103,4.5137,4.5149,4.5177,4.515,4.518,4.5201,4.5182,4.522,4.5227,4.5243,4.5287,4.5307,4.5293,4.5377,4.535,4.5354,4.5357,4.5383,4.5392,4.54,4.5293,4.5293,4.5292,0,0,4.513,4.5142,4.5178,4.5191,4.5211,4.5214,4.5223,4.5239,4.5243,4.5282,4.5269,4.5292,4.5333,4.5346,4.5358,4.5421,4.541,4.5429,4.5463,4.549,4.5498,4.5504,4.5528,4.5537,4.5434,4.5434,4.5434,0,4.5155,4.5198,4.5197,4.5229,4.5244,4.5231,4.5267,4.5279,4.5305,4.5315,4.53,4.5353,4.5362,4.541,4.5426,4.5436,4.5445,4.5427,4.5497,4.5504,4.551,4.5533,4.5541,4.5436,4.5436,4.5435,4.5435,0,4.523,4.526,4.5286,4.5314,4.5332,4.5365,4.5369,4.5387,4.5382,4.5387,4.5427,4.5438,4.5464,4.5474,4.5469,4.5522,4.5514,4.5498,4.5471,4.5521,4.5543,4.5551,4.5439,4.5438,4.5438,4.5437,0,0,4.5302,4.533,4.534,4.5353,4.5375,4.5397,4.5431,4.5457,4.5474,4.5491,4.552,4.5555,4.5542,4.5555,4.5552,4.5575,4.5627,4.5557,4.5557,4.557,4.5687,4.5699,4.5709,4.5619,4.562,4.5622,4.5686,0,4.536,4.5421,4.5422,4.5477,4.5506,4.5494,4.5523,4.5539,4.5544,4.5568,4.5573,4.5599,4.5579,4.5587,4.561,4.5616,4.565,4.5611,4.5645,4.5646,4.5642,4.572,4.5733,4.5793,4.5694,4.5695,4.5696,0,4.5437,4.5461,4.552,4.554,4.5551,4.5578,4.5603,4.5627,4.5644,4.5647,4.5663,4.5656,4.569,4.5662,4.5708,4.5681,4.5695,4.57,4.5702,4.5706,4.5675,4.5727,4.5812,4.5821,4.5709,4.5708,4.5707,0,4.5486,4.5532,4.5574,4.5585,4.5609,4.5628,4.5638,4.5655,4.5671,4.5693,4.5704,4.5728,4.5742,4.576,4.576,4.574,4.5808,4.5779,4.581,4.5811,4.5825,4.5825,4.5915,4.5833,4.5833,4.5833,4.5832,0,4.5552,4.5589,4.5597,4.5622,4.5664,4.5663,4.5703,4.5712,4.5727,4.5754,4.5744,4.5769,4.5767,4.5792,4.5792,4.5831,4.5836,4.5839,4.5839,4.5841,4.584,4.585,4.5846,4.5835,4.5834,4.5834,4.5834,0,4.5614,4.562,4.5665,4.5685,4.5691,4.572,4.5736,4.576,4.5765,4.5799,4.5807,4.5814,4.5844,4.5846,4.5878,4.5878,4.5926,4.5921,4.5921,4.592,4.5952,4.595,4.6052,4.6066,4.5974,4.5975,4.5976,0,4.5656,4.5685,4.5708,4.5727,4.5739,4.5768,4.5786,4.5786,4.5805,4.5829,4.5851,4.5879,4.5902,4.5949,4.5957,4.5982,4.5978,4.6012,4.5981,4.5983,4.598,4.5979,4.5982,4.6018,4.6019,4.602,4.6021,0,4.5731,4.5734,4.5761,4.579,4.5812,4.5834,4.5854,4.5869,4.5872,4.5894,4.5925,4.5943,4.5978,4.6007,4.6032,4.6041,4.6032,4.603,4.6039,4.6042,4.6042,4.6044,4.5939,4.6028,4.6027,4.6027,4.6026,4.6026,4.5785,4.5811,4.5833,4.5863,4.588,4.59,4.5924,4.5933,4.596,4.599,4.5988,4.6023,4.6041,4.6074,4.6085,4.6112,4.61,4.6112,4.6116,4.6119,4.6123,4.6037,4.6116,4.6116,4.6115,4.6115,4.6115,0,4.5861,4.5875,4.5904,4.5935,4.5959,4.595,4.5972,4.5993,4.6024,4.6043,4.6066,4.6102,4.6131,4.6141,4.6168,4.6188,4.6184,4.6195,4.6194,4.6196,4.6131,4.6122,4.6197,4.6197,4.6197,4.6197,4.6197,4.6197,4.5904,4.5948,4.5953,4.6005,4.6017,4.6053,4.6067,4.6085,4.6101,4.6142,4.6166,4.6174,4.6189,4.6218,4.6243,4.6245,4.6256,4.6269,4.627,4.6209,4.6201,4.6193,4.6184,4.6271,4.6271,4.6333,4.6333,4.6334]}]]